DW0345 Weather Reports


Display with metric or nautical units.
time (UTC)temp
F
wind
direction
speed
MPH
gust
MPH
rain 1hr
in
rain 24hr
in
rain mn
in
humidity
%
barometer
mb
20260510051736 67 74 5.0 8.0 0.00 0.00 0.00 66
20260510051245 67 70 2.0 5.0 0.00 0.00 0.00 66
20260510050745 67 88 3.0 6.0 0.00 0.00 0.00 66
20260510050244 67 90 4.0 6.0 0.00 0.00 0.00 66
20260510045742 67 64 3.0 7.0 0.00 0.00 0.00 66
20260510045242 67 87 4.0 7.0 0.00 0.00 0.00 66
20260510044743 67 89 4.0 7.0 0.00 0.00 0.00 66
20260510044248 67 97 4.0 8.0 0.00 0.00 0.00 65
20260510043751 67 73 5.0 8.0 0.00 0.00 0.00 65
20260510043233 68 97 4.0 8.0 0.00 0.00 0.00 65
20260510042737 68 93 5.0 8.0 0.00 0.00 0.00 65
20260510042235 68 87 3.0 7.0 0.00 0.00 0.00 64
20260510041737 69 68 5.0 7.0 0.00 0.00 0.00 63
20260510041240 69 79 3.0 6.0 0.00 0.00 0.00 64
20260510040802 69 73 2.0 5.0 0.00 0.00 0.00 63
20260510040315 69 91 2.0 6.0 0.00 0.00 0.00 63
20260510035734 70 93 3.0 5.0 0.00 0.00 0.00 62
20260510035255 70 100 4.0 5.0 0.00 0.00 0.00 61
20260510034756 70 108 3.0 5.0 0.00 0.00 0.00 60
20260510034234 71 95 2.0 6.0 0.00 0.00 0.00 60
20260510033734 71 102 4.0 7.0 0.00 0.00 0.00 59
20260510033237 71 79 4.0 7.0 0.00 0.00 0.00 58
20260510032739 72 85 4.0 9.0 0.00 0.00 0.00 58
20260510032240 72 135 3.0 8.0 0.00 0.00 0.00 58
20260510031740 72 105 4.0 6.0 0.00 0.00 0.00 58
20260510031244 72 75 2.0 5.0 0.00 0.00 0.00 58
20260510030743 72 137 2.0 5.0 0.00 0.00 0.00 58
20260510030253 72 318 0.0 3.0 0.00 0.00 0.00 58
20260510025737 73 328 1.0 3.0 0.00 0.00 0.00 57
20260510025241 73 310 1.0 5.0 0.00 0.00 0.00 57
20260510024744 74 305 2.0 6.0 0.00 0.00 0.00 56
20260510024242 74 336 3.0 5.0 0.00 0.00 0.00 55
20260510023743 75 314 2.0 4.0 0.00 0.00 0.00 55
20260510023251 75 320 1.0 4.0 0.00 0.00 0.00 54
20260510022755 76 315 2.0 4.0 0.00 0.00 0.00 53
20260510022235 76 295 2.0 3.0 0.00 0.00 0.00 52
20260510021739 77 332 0.0 5.0 0.00 0.00 0.00 52
20260510021246 77 354 1.0 5.0 0.00 0.00 0.00 52
20260510020749 77 314 2.0 6.0 0.00 0.00 0.00 51
20260510020255 77 320 3.0 6.0 0.00 0.00 0.00 51
20260510015817 78 310 3.0 6.0 0.00 0.00 0.00 51
20260510015237 78 316 3.0 6.0 0.00 0.00 0.00 50
20260510014739 78 326 3.0 7.0 0.00 0.00 0.00 50
20260510014237 79 308 4.0 7.0 0.00 0.00 0.00 49
20260510013740 79 300 3.0 6.0 0.00 0.00 0.00 49
20260510013250 79 301 3.0 7.0 0.00 0.00 0.00 49
20260510012754 79 339 3.0 7.0 0.00 0.00 0.00 49
20260510012238 80 337 4.0 8.0 0.00 0.00 0.00 48
20260510011739 80 341 3.0 8.0 0.00 0.00 0.00 47
20260510011250 81 312 6.0 8.0 0.00 0.00 0.00 47
20260510010752 81 314 3.0 9.0 0.00 0.00 0.00 46
20260510010251 82 316 3.0 9.0 0.00 0.00 0.00 46
20260510005733 83 317 5.0 9.0 0.00 0.00 0.00 45
20260510005258 83 268 4.0 9.0 0.00 0.00 0.00 44
20260510004739 83 313 5.0 10.0 0.00 0.00 0.00 44
20260510004240 84 244 5.0 10.0 0.00 0.00 0.00 44
20260510003741 83 254 5.0 10.0 0.00 0.00 0.00 44
20260510003301 83 303 5.0 9.0 0.00 0.00 0.00 44
20260510002735 84 359 5.0 9.0 0.00 0.00 0.00 44
20260510002252 84 335 6.0 10.0 0.00 0.00 0.00 44
20260510001756 84 227 4.0 10.0 0.00 0.00 0.00 44
20260510001240 84 271 6.0 10.0 0.00 0.00 0.00 43
20260510000739 84 297 5.0 10.0 0.00 0.00 0.00 43
20260510000237 85 285 6.0 10.0 0.00 0.00 0.00 43
20260509235736 85 318 5.0 10.0 0.00 0.00 0.00 42
20260509235253 85 305 6.0 10.0 0.00 0.00 0.00 42
20260509234754 85 250 6.0 10.0 0.00 0.00 0.00 42
20260509234237 85 289 5.0 9.0 0.00 0.00 0.00 42
20260509233800 85 245 5.0 9.0 0.00 0.00 0.00 42
20260509233236 85 322 5.0 9.0 0.00 0.00 0.00 41
20260509232737 86 27 5.0 10.0 0.00 0.00 0.00 41
20260509232236 86 335 5.0 12.0 0.00 0.00 0.00 41
20260509231757 87 328 6.0 12.0 0.00 0.00 0.00 40
20260509231252 86 262 5.0 11.0 0.00 0.00 0.00 41
20260509230752 86 301 5.0 10.0 0.00 0.00 0.00 41
20260509230319 86 345 4.0 8.0 0.00 0.00 0.00 41
20260509225738 85 31 3.0 9.0 0.00 0.00 0.00 41
20260509225254 85 141 3.0 9.0 0.00 0.00 0.00 41
20260509224754 85 101 5.0 9.0 0.00 0.00 0.00 41
20260509224259 87 66 6.0 12.0 0.00 0.00 0.00 40
20260509223734 87 325 7.0 23.0 0.00 0.00 0.00 39
20260509223258 88 4 11.0 23.0 0.00 0.00 0.00 38
20260509222738 88 195 9.0 17.0 0.00 0.00 0.00 39
20260509222238 87 217 4.0 7.0 0.00 0.00 0.00 40
20260509221757 86 154 2.0 6.0 0.00 0.00 0.00 40
20260509221242 86 106 1.0 7.0 0.00 0.00 0.00 40
20260509220742 86 64 3.0 5.0 0.00 0.00 0.00 39
20260509220241 85 124 2.0 8.0 0.00 0.00 0.00 40
20260509215739 85 53 3.0 8.0 0.00 0.00 0.00 40
20260509215312 85 223 3.0 7.0 0.00 0.00 0.00 40
20260509214753 85 206 3.0 7.0 0.00 0.00 0.00 40
20260509214233 85 100 4.0 7.0 0.00 0.00 0.00 40
20260509213756 85 143 4.0 7.0 0.00 0.00 0.00 41
20260509213239 84 106 4.0 13.0 0.00 0.00 0.00 40
20260509212758 85 110 6.0 13.0 0.00 0.00 0.00 40
20260509212247 86 137 4.0 7.0 0.00 0.00 0.00 39
20260509211735 86 79 3.0 6.0 0.00 0.00 0.00 39
20260509211242 85 289 3.0 5.0 0.00 0.00 0.00 39
20260509210743 85 246 1.0 7.0 0.00 0.00 0.00 40
20260509210247 84 222 2.0 7.0 0.00 0.00 0.00 39
20260509205741 84 246 2.0 6.0 0.00 0.00 0.00 39
20260509205242 85 158 3.0 6.0 0.00 0.00 0.00 39
20260509204801 84 62 2.0 9.0 0.00 0.00 0.00 39
20260509204239 84 101 5.0 9.0 0.00 0.00 0.00 39
20260509203759 83 8 2.0 5.0 0.00 0.00 0.00 41
20260509203254 83 33 3.0 5.0 0.00 0.00 0.00 42
20260509202734 82 42 2.0 7.0 0.00 0.00 0.00 43
20260509202256 82 157 4.0 7.0 0.00 0.00 0.00 42
20260509201755 82 161 3.0 8.0 0.00 0.00 0.00 43
20260509201300 81 73 4.0 8.0 0.00 0.00 0.00 43
20260509200737 82 108 2.0 8.0 0.00 0.00 0.00 44
20260509200235 82 137 2.0 5.0 0.00 0.00 0.00 43
20260509195734 81 307 0.0 6.0 0.00 0.00 0.00 44
20260509195240 81 152 2.0 4.0 0.00 0.00 0.00 44
20260509194801 80 189 1.0 7.0 0.00 0.00 0.00 45
20260509194249 80 109 3.0 7.0 0.00 0.00 0.00 45
20260509193751 80 57 4.0 7.0 0.00 0.00 0.00 45
20260509193252 79 245 2.0 7.0 0.00 0.00 0.00 46
20260509192752 78 96 3.0 7.0 0.00 0.00 0.00 47
20260509192236 79 77 3.0 7.0 0.00 0.00 0.00 47
20260509191756 79 65 2.0 7.0 0.00 0.00 0.00 47
20260509191258 78 37 3.0 8.0 0.00 0.00 0.00 48
20260509190800 78 64 3.0 8.0 0.00 0.00 0.00 48
20260509190257 78 226 2.0 7.0 0.00 0.00 0.00 49
20260509185756 77 184 2.0 7.0 0.00 0.00 0.00 50
20260509185234 77 86 1.0 6.0 0.00 0.00 0.00 50
20260509184756 76 45 3.0 4.0 0.00 0.00 0.00 52
20260509184236 76 73 3.0 6.0 0.00 0.00 0.00 52
20260509183738 75 145 4.0 6.0 0.00 0.00 0.00 52
20260509183236 75 226 2.0 6.0 0.00 0.00 0.00 53
20260509182737 76 48 3.0 8.0 0.00 0.00 0.00 53
20260509182241 76 124 2.0 8.0 0.00 0.00 0.00 53
20260509181740 75 42 1.0 6.0 0.00 0.00 0.00 55
20260509181236 74 185 4.0 6.0 0.00 0.00 0.00 56
20260509180735 74 195 3.0 6.0 0.00 0.00 0.00 56
20260509180253 74 236 1.0 6.0 0.00 0.00 0.00 57
20260509175752 74 115 1.0 6.0 0.00 0.00 0.00 58
20260509175234 73 168 2.0 5.0 0.00 0.00 0.00 60
20260509174737 73 52 3.0 5.0 0.00 0.00 0.00 60
20260509174247 73 150 2.0 3.0 0.00 0.00 0.00 61
20260509173742 71 66 2.0 3.0 0.00 0.00 0.00 62
20260509173239 71 199 2.0 5.0 0.00 0.00 0.00 63
20260509172733 71 222 3.0 5.0 0.00 0.00 0.00 64
20260509172255 70 276 2.0 4.0 0.00 0.00 0.00 65
20260509171734 70 41 1.0 3.0 0.00 0.00 0.00 66
20260509171245 69 75 0.0 4.0 0.00 0.00 0.00 66
20260509170802 69 28 3.0 4.0 0.00 0.00 0.00 67
20260509170233 69 347 1.0 5.0 0.00 0.00 0.00 68
20260509165740 68 20 2.0 5.0 0.00 0.00 0.00 69
20260509165238 67 318 2.0 5.0 0.00 0.00 0.00 71
20260509164759 67 339 1.0 5.0 0.00 0.00 0.00 71
20260509164244 67 4 3.0 5.0 0.00 0.00 0.00 72
20260509163745 66 103 3.0 5.0 0.00 0.00 0.00 73
20260509163244 66 37 2.0 4.0 0.00 0.00 0.00 75
20260509162743 65 27 1.0 4.0 0.00 0.00 0.00 77
20260509162238 64 24 3.0 5.0 0.00 0.00 0.00 78
20260509161739 64 32 3.0 6.0 0.00 0.00 0.00 79
20260509161242 64 316 2.0 6.0 0.00 0.00 0.00 81
20260509160740 63 290 1.0 3.0 0.00 0.00 0.00 82
20260509160239 63 262 2.0 4.0 0.00 0.00 0.00 83
20260509155740 62 312 2.0 4.0 0.00 0.00 0.00 84
20260509155258 62 301 2.0 5.0 0.00 0.00 0.00 84
20260509154737 62 312 2.0 4.0 0.00 0.00 0.00 85
20260509154258 61 265 0.0 3.0 0.00 0.00 0.00 86
20260509153735 61 32 0.0 3.0 0.00 0.00 0.00 86
20260509153239 60 134 2.0 3.0 0.00 0.00 0.00 86
20260509152741 60 120 1.0 3.0 0.00 0.00 0.00 87
20260509152308 60 287 1.0 3.0 0.00 0.00 0.00 87
20260509151748 60 308 0.0 3.0 0.00 0.00 0.00 87
20260509151253 59 306 1.0 3.0 0.00 0.00 0.00 87
20260509150735 59 265 1.0 5.0 0.00 0.00 0.00 87
20260509150305 59 257 3.0 5.0 0.00 0.00 0.00 87
20260509145802 59 325 2.0 4.0 0.00 0.00 0.00 88
20260509145253 59 322 2.0 4.0 0.00 0.00 0.00 88
20260509144735 59 319 2.0 4.0 0.00 0.00 0.00 88
20260509144251 59 316 0.0 3.0 0.00 0.00 0.00 88
20260509143753 58 320 2.0 3.0 0.00 0.00 0.00 88
20260509143238 58 326 2.0 4.0 0.00 0.00 0.00 88
20260509142740 58 18 1.0 4.0 0.00 0.00 0.00 88
20260509142237 58 322 2.0 4.0 0.00 0.00 0.00 88
20260509141739 58 347 0.0 3.0 0.00 0.00 0.00 88
20260509141251 58 320 1.0 3.0 0.00 0.00 0.00 88
20260509140734 58 315 0.0 2.0 0.00 0.00 0.00 88
20260509140243 58 296 0.0 2.0 0.00 0.00 0.00 88
20260509135742 58 332 1.0 2.0 0.00 0.00 0.00 88
20260509135306 58 331 1.0 2.0 0.00 0.00 0.00 88
20260509134740 58 48 1.0 2.0 0.00 0.00 0.00 88
20260509134242 58 75 0.0 3.0 0.00 0.00 0.00 88
20260509133743 58 89 2.0 5.0 0.00 0.00 0.00 88
20260509133251 58 60 0.0 2.0 0.00 0.00 0.00 88
20260509132812 58 345 1.0 2.0 0.00 0.00 0.00 88
20260509132233 58 354 0.0 0.0 0.00 0.00 0.00 88
20260509131736 58 341 0.0 2.0 0.00 0.00 0.00 88
20260509131234 58 17 1.0 2.0 0.00 0.00 0.00 88
20260509130736 58 321 0.0 2.0 0.00 0.00 0.00 88
20260509130242 58 321 1.0 2.0 0.00 0.00 0.00 88
20260509125741 58 273 1.0 2.0 0.00 0.00 0.00 87
20260509125233 58 326 0.0 3.0 0.00 0.00 0.00 87
20260509124735 58 326 2.0 3.0 0.00 0.00 0.00 87
20260509124232 58 306 1.0 3.0 0.00 0.00 0.00 87
20260509123736 58 133 0.0 4.0 0.00 0.00 0.00 87
20260509123238 58 77 0.0 4.0 0.00 0.00 0.00 87
20260509122759 58 58 0.0 3.0 0.00 0.00 0.00 87
20260509122305 58 95 1.0 2.0 0.00 0.00 0.00 87
20260509121801 58 122 0.0 4.0 0.00 0.00 0.00 87
20260509121252 58 128 1.0 5.0 0.00 0.00 0.00 87
20260509120734 58 115 3.0 4.0 0.00 0.00 0.00 87
20260509120240 58 136 2.0 3.0 0.00 0.00 0.00 87
20260509115739 58 89 2.0 3.0 0.00 0.00 0.00 87
20260509115300 58 110 2.0 3.0 0.00 0.00 0.00 87
20260509114742 58 147 1.0 3.0 0.00 0.00 0.00 86
20260509114249 58 8 0.0 2.0 0.00 0.00 0.00 86
20260509113750 58 8 0.0 4.0 0.00 0.00 0.00 86
20260509113235 58 27 2.0 5.0 0.00 0.00 0.00 86
20260509112756 58 73 1.0 5.0 0.00 0.00 0.00 86
20260509112240 58 4 1.0 2.0 0.00 0.00 0.00 86
20260509111736 58 28 0.0 4.0 0.00 0.00 0.00 86
20260509111255 58 37 1.0 4.0 0.00 0.00 0.00 86
20260509110736 58 270 0.0 2.0 0.00 0.00 0.00 86
20260509110254 59 166 0.0 3.0 0.00 0.00 0.00 86
20260509105754 59 109 1.0 4.0 0.00 0.00 0.00 86
20260509105234 59 87 2.0 5.0 0.00 0.00 0.00 86
20260509104757 59 91 2.0 4.0 0.00 0.00 0.00 86
20260509104235 59 42 3.0 4.0 0.00 0.00 0.00 86
20260509103756 59 85 2.0 3.0 0.00 0.00 0.00 86
20260509103235 58 75 0.0 3.0 0.00 0.00 0.00 86
20260509102757 58 116 1.0 3.0 0.00 0.00 0.00 86
20260509102259 58 115 1.0 5.0 0.00 0.00 0.00 85
20260509101801 58 118 2.0 5.0 0.00 0.00 0.00 85
20260509101241 58 122 0.0 0.0 0.00 0.00 0.00 85
20260509100738 58 110 0.0 0.0 0.00 0.00 0.00 85
20260509100308 58 133 0.0 0.0 0.00 0.00 0.00 85
20260509095747 58 135 0.0 2.0 0.00 0.00 0.00 84
20260509095246 58 105 1.0 2.0 0.00 0.00 0.00 84
20260509094745 59 138 1.0 2.0 0.00 0.00 0.00 84
20260509094241 59 135 1.0 3.0 0.00 0.00 0.00 84
20260509093741 59 141 1.0 3.0 0.00 0.00 0.00 84
20260509093259 59 126 1.0 3.0 0.00 0.00 0.00 83
20260509092800 59 141 1.0 3.0 0.00 0.00 0.00 83
20260509092247 59 137 1.0 3.0 0.00 0.00 0.00 83
20260509091750 59 145 2.0 3.0 0.00 0.00 0.00 83
20260509091249 59 110 1.0 3.0 0.00 0.00 0.00 83
20260509090732 60 111 1.0 3.0 0.00 0.00 0.00 83
20260509090238 60 80 2.0 3.0 0.00 0.00 0.00 82
20260509085758 60 70 1.0 2.0 0.00 0.00 0.00 82
20260509085242 60 145 1.0 2.0 0.00 0.00 0.00 82
20260509084743 60 137 1.0 2.0 0.00 0.00 0.00 82
20260509084236 60 118 0.0 3.0 0.00 0.00 0.00 82
20260509083736 60 93 1.0 3.0 0.00 0.00 0.00 82
20260509083255 60 135 0.0 0.0 0.00 0.00 0.00 81
20260509082820 60 108 0.0 0.0 0.00 0.00 0.00 81
20260509082243 60 108 0.0 0.0 0.00 0.00 0.00 81
20260509081804 61 118 0.0 0.0 0.00 0.00 0.00 81
20260509081244 61 118 0.0 0.0 0.00 0.00 0.00 81
20260509080801 61 135 0.0 0.0 0.00 0.00 0.00 81
20260509080243 61 138 0.0 0.0 0.00 0.00 0.00 81
20260509075741 61 146 0.0 0.0 0.00 0.00 0.00 81
20260509075244 61 135 0.0 0.0 0.00 0.00 0.00 80
20260509074743 61 145 0.0 0.0 0.00 0.00 0.00 80
20260509074240 61 67 0.0 2.0 0.00 0.00 0.00 80
20260509073801 62 63 0.0 3.0 0.00 0.00 0.00 80
20260509073249 62 107 0.0 2.0 0.00 0.00 0.00 80
20260509072753 62 124 1.0 3.0 0.00 0.00 0.00 79
20260509072236 62 99 2.0 3.0 0.00 0.00 0.00 79
20260509071738 62 69 2.0 3.0 0.00 0.00 0.00 79
20260509071254 62 78 2.0 3.0 0.00 0.00 0.00 79
20260509070752 62 79 2.0 3.0 0.00 0.00 0.00 79
20260509070253 62 83 1.0 2.0 0.00 0.00 0.00 79
20260509065751 62 83 1.0 2.0 0.00 0.00 0.00 79
20260509065257 62 120 1.0 2.0 0.00 0.00 0.00 79
20260509064734 62 130 1.0 2.0 0.00 0.00 0.00 78
20260509064236 62 68 0.0 3.0 0.00 0.00 0.00 78
20260509063736 62 67 1.0 5.0 0.00 0.00 0.00 78
20260509063252 62 87 1.0 5.0 0.00 0.00 0.00 78
20260509062758 62 125 0.0 0.0 0.00 0.00 0.00 78
20260509062259 62 129 0.0 0.0 0.00 0.00 0.00 78
20260509061737 62 129 0.0 0.0 0.00 0.00 0.00 78
20260509061254 62 83 0.0 2.0 0.00 0.00 0.00 78
20260509060755 63 83 1.0 3.0 0.00 0.00 0.00 77
20260509060252 63 130 1.0 3.0 0.00 0.00 0.00 77
20260509055815 63 135 1.0 3.0 0.00 0.00 0.00 77
20260509055237 63 138 2.0 3.0 0.00 0.00 0.00 76
20260509054758 63 120 1.0 3.0 0.00 0.00 0.00 76
20260509054236 64 120 1.0 3.0 0.00 0.00 0.00 76
20260509053757 64 112 1.0 3.0 0.00 0.00 0.00 76
20260509053259 64 117 2.0 3.0 0.00 0.00 0.00 75
20260509052739 64 121 1.0 3.0 0.00 0.00 0.00 75
20260509052302 64 143 2.0 3.0 0.00 0.00 0.00 75
20260509051759 65 112 2.0 4.0 0.00 0.00 0.00 74